Arcata, CA

7:57 PM PST on February 11, 2016 (GMT -0800)
Arcata

Weather History for KACV - January, 2014

Change the Weather History Date:

Tuesday, January 28, 2014

  Actual Average Record
Temperature  
Mean Temperature 56 °F -  
Max Temperature 62 °F 54 °F 69 °F (1998)
Min Temperature 51 °F 39 °F 30 °F (2002)
Degree Days  
Heating Degree Days 8    
Growing Degree Days 6 (Base 50)    
Moisture  
Dew Point 52 °F    
Average Humidity 88    
Maximum Humidity 97    
Minimum Humidity 72    
Precipitation  
Precipitation 0.07 in - - ()
Sea Level Pressure  
Sea Level Pressure 30.18 in    
Wind  
Wind Speed 2 mph (NNE)    
Max Wind Speed 8 mph    
Max Gust Speed -    
Visibility 4 miles    
Events Fog , Rain    
Averages and records for this station are not official NWS values.
T = Trace of Precipitation, MM = Missing Value Source: NWS Daily Summary

Daily Weather History Graph

Daily Weather History Graph

Search for Another Location

Airport or City:

Trip Planner

Search our weather history database for the weather conditions in past years. The results will help you decide how hot, cold, wet, or windy it might be!

Date:

Astronomy

Jan. 28, 2014 Rise Set
Actual Time 7:30 AM PST 5:28 PM PST
Civil Twilight 7:01 AM PST 5:58 PM PST
Nautical Twilight 6:28 AM PST 6:31 PM PST
Astronomical Twilight 5:55 AM PST 7:03 PM PST
Moon 5:17 AM PST (1/28) 3:25 PM PST (1/28)
Length of Visible Light 10h 56m
Length of Day
9h 58m
Waning Crescent, 6% of the Moon is Illuminated
Jan 28
Waning Crescent
Jan 30
New
Feb 6
First Quarter
Feb 14
Full
Feb 22
Last Quarter

Hourly Weather History & Observations

Time (PST) Temp. Dew Point Humidity Pressure Visibility Wind Dir Wind Speed Gust Speed Precip Events Conditions
12:53 AM 52.0 °F 46.9 °F 83% 30.20 in 10.0 mi ESE 3.5 mph - N/A   Overcast
1:53 AM 52.0 °F 46.9 °F 83% 30.19 in 10.0 mi East 3.5 mph - N/A   Overcast
2:53 AM 54.0 °F 46.0 °F 75% 30.19 in 10.0 mi ESE 3.5 mph - N/A   Overcast
3:53 AM 52.0 °F 46.9 °F 83% 30.19 in 10.0 mi West 3.5 mph - N/A   Overcast
4:11 AM 52.0 °F 46.9 °F 83% 30.18 in 2.5 mi SSW 3.5 mph - N/A   Haze
4:18 AM 52.0 °F 46.9 °F 83% 30.18 in 4.0 mi Calm Calm - N/A   Haze
4:53 AM 52.0 °F 46.9 °F 83% 30.20 in 10.0 mi Calm Calm - N/A   Overcast
5:53 AM 52.0 °F 48.0 °F 86% 30.19 in 10.0 mi Calm Calm - N/A   Overcast
6:53 AM 51.1 °F 48.0 °F 89% 30.19 in 10.0 mi Calm Calm - N/A   Overcast
7:53 AM 51.1 °F 48.0 °F 89% 30.21 in 9.0 mi Calm Calm - N/A   Overcast
8:53 AM 52.0 °F 48.9 °F 89% 30.22 in 10.0 mi East 3.5 mph - 0.01 in Rain Light Rain
9:53 AM 55.0 °F 51.1 °F 86% 30.22 in 10.0 mi Calm Calm - 0.00 in   Overcast
10:53 AM 57.9 °F 51.1 °F 78% 30.21 in 9.0 mi Calm Calm - N/A   Overcast
11:53 AM 62.1 °F 53.1 °F 72% 30.18 in 10.0 mi Calm Calm - N/A   Overcast
12:13 PM 57.9 °F 52.0 °F 81% 30.16 in 1.8 mi WSW 4.6 mph - N/A   Haze
12:37 PM 55.9 °F 48.9 °F 77% 30.17 in 3.0 mi West 4.6 mph - N/A   Haze
12:53 PM 55.9 °F 48.9 °F 77% 30.19 in 4.0 mi West 4.6 mph - N/A   Haze
1:12 PM 55.0 °F 48.9 °F 80% 30.17 in 3.0 mi Calm Calm - N/A   Haze
1:53 PM 57.0 °F 51.1 °F 81% 30.18 in 4.0 mi ENE 3.5 mph - N/A   Haze
2:26 PM 57.0 °F 52.0 °F 83% 30.16 in 2.0 mi Calm Calm - 0.00 in Rain Light Rain
2:39 PM 57.9 °F 53.1 °F 84% 30.14 in 6.0 mi ENE 3.5 mph - 0.00 in   Haze
2:53 PM 57.9 °F 53.1 °F 84% 30.16 in 6.0 mi Calm Calm - 0.00 in   Haze
3:22 PM 57.9 °F 54.0 °F 87% 30.16 in 1.8 mi West 8.1 mph - N/A   Overcast
3:40 PM 57.9 °F 54.0 °F 87% 30.17 in 2.5 mi NW 4.6 mph - N/A   Overcast
3:53 PM 57.0 °F 53.1 °F 87% 30.19 in 1.8 mi NW 4.6 mph - N/A   Overcast
4:42 PM 55.0 °F 53.1 °F 93% 30.18 in 1.0 mi North 3.5 mph - 0.01 in Rain Light Rain
4:53 PM 55.9 °F 54.0 °F 93% 30.20 in 0.8 mi Calm Calm - 0.02 in Rain Light Rain
5:02 PM 55.9 °F 54.0 °F 93% 30.18 in 1.0 mi Calm Calm - 0.01 in Rain Light Rain
5:21 PM 55.0 °F 53.1 °F 93% 30.17 in 0.5 mi Calm Calm - 0.01 in Fog Fog
5:31 PM 55.9 °F 54.0 °F 93% 30.17 in 2.0 mi Calm Calm - 0.01 in Rain Light Rain
5:36 PM 55.9 °F 53.1 °F 90% 30.17 in 4.0 mi East 3.5 mph - 0.01 in   Overcast
5:53 PM 55.9 °F 54.0 °F 93% 30.18 in 6.0 mi Calm Calm - 0.02 in Rain Light Rain
6:21 PM 55.0 °F 53.1 °F 93% 30.17 in 1.8 mi Calm Calm - 0.00 in   Overcast
6:45 PM 55.9 °F 54.0 °F 93% 30.14 in 3.0 mi East 4.6 mph - 0.00 in   Overcast
6:53 PM 55.9 °F 54.0 °F 93% 30.15 in 4.0 mi East 5.8 mph - 0.00 in   Overcast
7:46 PM 55.9 °F 55.0 °F 97% 30.16 in 1.8 mi Calm Calm - N/A   Overcast
7:53 PM 55.0 °F 54.0 °F 96% 30.18 in 0.8 mi Calm Calm - N/A   Overcast
8:13 PM 55.9 °F 53.1 °F 90% 30.17 in 1.0 mi Calm Calm - N/A   Overcast
8:31 PM 55.9 °F 54.0 °F 93% 30.17 in 0.8 mi Calm Calm - N/A   Overcast
8:42 PM 55.9 °F 54.0 °F 93% 30.17 in 1.8 mi Calm Calm - N/A   Overcast
8:45 PM 57.0 °F 54.0 °F 89% 30.17 in 3.0 mi Calm Calm - N/A   Overcast
8:53 PM 57.0 °F 54.0 °F 89% 30.19 in 6.0 mi Calm Calm - N/A   Overcast
9:15 PM 55.9 °F 55.0 °F 97% 30.18 in 1.8 mi Calm Calm - 0.01 in Rain Light Rain
9:27 PM 55.9 °F 54.0 °F 93% 30.18 in 0.8 mi Calm Calm - 0.01 in Rain Light Rain
9:39 PM 57.0 °F 54.0 °F 89% 30.17 in 1.2 mi SSE 3.5 mph - 0.02 in   Overcast
9:47 PM 57.2 °F 55.4 °F 94% 30.18 in 3.0 mi SE 3.5 mph - 0.02 in   Overcast
9:53 PM 57.0 °F 55.0 °F 93% 30.19 in 4.0 mi SSE 3.5 mph - 0.02 in   Overcast
10:48 PM 55.4 °F 53.6 °F 94% 30.16 in 0.8 mi WNW 4.6 mph - N/A   Overcast
10:49 PM 55.0 °F 53.1 °F 93% 30.17 in 0.5 mi WNW 4.6 mph - N/A Fog Fog
10:58 PM 53.1 °F 52.0 °F 96% 30.16 in 0.2 mi Calm Calm - N/A Fog Fog
11:13 PM 53.1 °F 51.1 °F 93% 30.16 in 0.2 mi NW 4.6 mph - N/A Fog Fog
11:20 PM 53.1 °F 51.1 °F 93% 30.16 in 0.2 mi NW 3.5 mph - N/A Fog Fog
11:53 PM 53.1 °F 52.0 °F 96% 30.18 in 0.2 mi Calm Calm - 0.00 in Fog , Rain Light Rain